Regional Weather Roundup
Issued by NWS

Home | Current Version | Previous Version | Text Only | Print | Product List | Glossary Off
Versions: 1 2 3 4 5 6 7 8 9 10 11 12 13 14 15 16 17 18 19 20 21 22 23 24 25 26 27 28 29 30 31 32 33 34 35 36 37 38 39 40 41 42 43 44 45 46 47 48 49 50

000
ASUS43 KIND 252309
RWRIN

WEATHER ROUNDUP FOR INDIANA
NATIONAL WEATHER SERVICE INDIANAPOLIS IN
600 PM EST SUN JAN 25 2015

NOTE: "FAIR" INDICATES FEW OR NO CLOUDS BELOW 12,000 FEET WITH NO
SIGNIFICANT WEATHER AND/OR OBSTRUCTIONS TO VISIBILITY.

* - STATION DOES NOT REPORT WEATHER SUCH AS PRECIPITATION OR FOG.

+ - STATION NOT QUALITY CONTROLLED BY THE NATIONAL WEATHER SERVICE.
    USE DATA WITH CAUTION...ESPECIALLY DEWPOINT AND RELATIVE
    HUMIDITY OBSERVATIONS.

INZ001>003-010>013-019-020-260000-
NORTHWEST INDIANA

CITY           SKY/WX    TMP DP  RH WIND       PRES   REMARKS
GARY /AIRPORT/ LGT SNOW  28  23  80 NE17G35   29.90R WCI  16
KNOX *+        CLOUDY    27  18  70 NE15G22   29.85R WCI  15
LA PORTE +     LGT SNOW  27  25  90 NE10      29.87R WCI  17
MICHIGAN CITY+ MIX PCPN  27  21  80 NE8       29.89R WCI  18
MONTICELLO +   FLURRIES  28  26  93 NE16G22   29.79R WCI  16
RENSSELAER +   LGT SNOW  30  30 100 NE14      29.83R WCI  20
VALPARAISO     LGT SNOW  26  22  84 NE14      29.87R FOG     WCI  14

$$

LMZ046-743>745-260000-
SOUTHERN LAKE MICHIGAN

STATION/POSITION TIME  TEMP WIND        PRES
                       AIR  DIR/SP/G
                 (UTC) (F)  (DEG/KT/KT) (MB)
MICHIGAN CITY    2300   25   20/ 21/ 24   N/A

$$

INZ004-005-014>016-021>024-260000-
NORTH CENTRAL INDIANA

CITY           SKY/WX    TMP DP  RH WIND       PRES   REMARKS
GOSHEN         LGT SNOW  24  20  84 NE15G28   29.85R FOG     WCI  11
LOGANSPORT +   LGT SNOW  27  23  86 NE16G24   29.80R WCI  14
PERU/GRISSOM   LGT SNOW  25  21  86 NE25      29.77R FOG     WCI   9
ROCHESTER +    LGT SNOW  28  27  93 NE18G24   29.82R WCI  16
SOUTH BEND     LGT SNOW  25  20  81 NE10      29.88R WCI  15
WARSAW +       LGT SNOW  27  23  86 NE16      29.83R WCI  14

$$

INZ006>009-017-018-025>027-260000-
NORTHEAST INDIANA

CITY           SKY/WX    TMP DP  RH WIND       PRES   REMARKS
ANGOLA *+      CLOUDY    21  18  86 E15       29.85R WCI   8
AUBURN +       LGT SNOW  23  19  86 NE14G22   29.85S WCI  11
FORT WAYNE     LGT SNOW  22  19  89 NE22G28   29.83R VSB 1   WCI   6
HUNTINGTON +   LGT SNOW  23  18  82 NE13G20   29.81R VSB 3/4 WCI  11

$$

INZ028-029-035-036-043>045-051>053-260000-
WEST CENTRAL INDIANA

CITY           SKY/WX    TMP DP  RH WIND       PRES   REMARKS
CRAWFORDSVL +  CLOUDY    28  25  86 NE23G31   29.72  WCI  14
GREENCASTLE +  CLOUDY    34  32  93 NE9       29.69R FOG     WCI  26
LAFAYETTE      LGT SNOW  28  25  88 NE17      29.78R FOG     WCI  16
TERRE HAUTE    LGT RAIN  38  35  89 N10       29.69R FOG

$$

INZ030>032-037>040-046>048-054>057-064-065-260000-
CENTRAL INDIANA

CITY           SKY/WX    TMP DP  RH WIND       PRES   REMARKS
CP ATTERBURY + LGT RAIN  36  34  93 NE5       29.67R
GREENWOOD *+   CLOUDY    34  30  86 NE8       29.69  WCI  27
INDIANAPOLIS   LGTSLEET  32  32 100 NE12      29.68R FOG     WCI  23
-EAGLE CREEK   LGT SNOW  32  30  92 NE13G21   29.70R FOG     WCI  22
KOKOMO *+      CLOUDY    25  21  86 NE22G28   29.77R VSB 1   WCI  10
MARION +       CLOUDY    24  21  88 NE24G33   29.77R WCI   9
MT COMFORT *+  CLOUDY    32 N/A N/A NE15      29.70R WCI  22
SHELBYVILLE    LGT SNOW  35  32  88 NE9       29.68R FOG     WCI  28
ZIONSVILLE +   FLURRIES  30  26  86 NE21G26   29.73R WCI  17

$$

INZ033-034-041-042-049-050-058-059-260000-
EAST CENTRAL INDIANA

CITY           SKY/WX    TMP DP  RH WIND       PRES   REMARKS
MUNCIE         SNOW      25  22  88 NE22G31   29.73R VSB 1/2 WCI  10

$$

INZ060-061-067>069-081>083-085>088-260000-
SOUTHWEST INDIANA

CITY           SKY/WX    TMP DP  RH WIND       PRES   REMARKS
EVANSVILLE     LGT RAIN  42  38  85 SW7       29.64R
HUNTINGBURG *+ CLOUDY    41  37  87 CALM      29.64R
WASHINGTON +   RAIN      39  36  87 CALM      29.64R

$$

INZ062-063-066-070>080-084-089>092-260000-
SOUTH CENTRAL AND SOUTHEAST INDIANA

CITY           SKY/WX    TMP DP  RH WIND       PRES   REMARKS
BLOOMINGTON    LGT RAIN  38  37  97 NE7       29.65R
NORTH VERNON + LGT RAIN  39  39 100 CALM      29.66
SEYMOUR +      DRIZZLE   39  39 100 NE7       29.66R

$$



USA.gov is the U.S. government's official web portal to all federal, state and local government web resources and services.